Weather observations for the past three days for
Opelousas St Landry Parish Airport
Imperial (Metric)
Date Time (cdt) Wind (mph) Vis. (mi.) Weather Sky Cond. Temperature (ºF) Relative Humidity Wind Chill (°F) Heat Index (°F) Pressure Precipitation (in)
Air Dwpt 6 hour altimeter (in) sea level (mb) 1 hr 3 hr 6 hr
Max. Min.
15 05:50 Calm 3.00 Fog/Mist CLR 73.2 72.1 96% 30.08 0.0
15 05:30 Calm 2.00 Fog/Mist CLR 73.8 72.7 96% 30.07 0.0
15 05:10 Calm 4.00 Fog/Mist CLR 72.9 71.6 96% 30.07 0.0
15 04:50 Calm 5.00 Fog/Mist CLR 73.9 72.7 96% 30.07 0.0
15 04:30 SW 3 7.00 Fair CLR 74.3 73 96% 30.06 0.0
15 04:10 Calm 7.00 Fair CLR 74.3 72.9 95% 30.06 0.0
15 03:50 Calm 7.00 Fair CLR 73.6 72.5 96% 30.04 0.0
15 03:30 Calm 10.00 Fair CLR 74.3 73 96% 30.05 0.0
15 03:10 Calm 7.00 Fair CLR 73.8 72.7 96% 30.05 0.0
15 02:50 Calm 5.00 Fog/Mist CLR 73.4 72.5 97% 30.05 0.0
15 02:30 Calm 5.00 Fog/Mist CLR 73.8 72.7 96% 30.06 0.0
15 02:10 Calm 5.00 Fog/Mist CLR 73.6 72.3 96% 30.07 0.0
15 01:50 Calm 7.00 Fair CLR 73.8 72.7 96% 30.08 0.0
15 01:30 Calm 7.00 Fair CLR 73.9 72.7 96% 30.09 0.0
15 01:10 Calm 7.00 Fair CLR 73.8 72.5 96% 30.09 0.0
15 00:50 Calm 7.00 Fair CLR 74.3 72.9 82.9 74.3 95% 30.1 0.0
15 00:30 Calm 10.00 Fair CLR 74.8 73.6 96% 30.1 0.0
15 00:10 Calm 10.00 Fair CLR 74.5 73 95% 30.1 0.0
14 23:30 Calm 10.00 Fair CLR 75.2 73.4 94% 74 30.1 0.0
14 23:10 Calm 10.00 Fair CLR 75.6 73.9 95% 74 30.1 0.0
14 22:50 Calm 10.00 Fair CLR 75.2 73.4 94% 74 30.09 0.0
14 22:30 Calm 10.00 Fair CLR 76.5 74.3 93% 77 30.09 0.0
14 22:10 Calm 10.00 Fair CLR 76.8 74.3 92% 78 30.09 0.0
14 21:50 Calm 10.00 Fair CLR 76.5 74.5 94% 77 30.09 0.0
14 21:30 Calm 10.00 Fair CLR 76.3 74.3 94% 76 30.07 0.0
14 21:10 Calm 10.00 Fair CLR 77.5 75.4 93% 79 30.07 0.0
14 20:50 Calm 10.00 Fair CLR 77.9 75 91% 80 30.07 0.0
14 20:30 Calm 10.00 Partly Cloudy SCT002 78.8 75.4 89% 82 30.07 0.0
14 20:10 Calm 10.00 Fair CLR 79.7 75.9 88% 85 30.07 0.0
14 19:50 Calm 10.00 Partly Cloudy SCT002 80.2 76.6 89% 86 30.08 0.0
14 19:30 Calm 10.00 Fair CLR 81 77.2 88% 88 30.08 0.0
14 19:10 Calm 10.00 Fair CLR 82 77.4 86% 90 30.08 0.0
14 18:50 W 3 10.00 Fair CLR 83.3 77.5 90.1 81.7 83% 93 30.09 0.0
14 18:30 Calm 10.00 Fair CLR 83.3 77.9 84% 93 30.09 0.0
14 18:10 Calm 10.00 Fair CLR 83.5 77.4 82% 93 30.09 0.0
14 17:50 W 6 10.00 Fair CLR 84.4 78.6 83% 96 30.09 0.0
14 17:30 W 5 10.00 Light Rain SCT027 SCT050 BKN080 81.7 78.1 89% 90 30.08 0.0
14 17:10 W 6 10.00 Light Rain SCT060 BKN095 83.1 78.6 86% 94 30.09 0.0
14 16:50 W 3 10.00 Fair CLR 84.7 77.2 78% 95 30.09 0.0
14 16:30 SW 3 10.00 Fair CLR 85.5 76.6 75% 96 30.09 0.0
14 16:10 SW 3 10.00 Fair CLR 86 76.8 74% 97 30.1 0.0
14 15:50 SW 3 10.00 Fair CLR 86.4 75.6 70% 96 30.11 0.0
14 15:30 Calm 10.00 Fair CLR 86.5 75.7 70% 97 30.11 0.0
14 15:10 Calm 10.00 Fair CLR 86.9 75.9 70% 97 30.11 0.0
14 14:50 Calm 10.00 Fair CLR 88.3 73.4 61% 97 30.12 0.0
14 14:30 Calm 10.00 Fair CLR 88.3 73.4 61% 97 30.13 0.0
14 14:10 Calm 10.00 Fair CLR 88.3 74.3 63% 97 30.13 0.0
14 13:50 Calm 10.00 Fair CLR 89.1 74.5 62% 99 30.14 0.0
14 13:30 NW 5 10.00 Fair CLR 90.1 75.6 62% 101 30.14 0.0
14 13:10 N 3 10.00 Partly Cloudy SCT065 SCT080 88.2 75.2 66% 98 30.15 0.0
14 12:50 Calm 10.00 Mostly Cloudy SCT027 SCT040 BKN065 88.3 76.1 89.1 74.3 67% 100 30.16 0.0
14 12:30 Calm 10.00 Mostly Cloudy SCT027 SCT031 BKN040 89.1 76.3 66% 101 30.17 0.0
14 12:10 N 3 10.00 Mostly Cloudy BKN023 BKN029 BKN037 86.7 76.1 71% 97 30.17 0.0
14 11:50 Calm 10.00 Thunderstorm in Vicinity SCT021 BKN029 85.8 77 75% 97 30.18 0.0
14 11:30 NW 5 10.00 Partly Cloudy SCT023 85.5 76.3 74% 95 30.18 0.0
14 11:10 N 3 10.00 Fair CLR 85.1 76.6 76% 95 30.17 0.0
14 10:50 Calm 10.00 Fair CLR 84.7 76.3 76% 94 30.18 0.0
14 10:30 NW 5 10.00 Fair CLR 84.7 76.1 75% 94 30.17 0.0
14 10:10 NW 3 10.00 Fair CLR 85.3 76.3 75% 95 30.18 0.0
14 09:50 Calm 10.00 Fair CLR 85.1 75.7 74% 94 30.18 0.0
14 09:30 Calm 10.00 Fair CLR 82 75 79% 89 30.18 0.0
14 09:10 Calm 10.00 Fair CLR 80.2 75 84% 85 30.18 0.0
14 08:50 Calm 10.00 Fair CLR 78.8 74.8 88% 82 30.18 0.0
14 08:30 Calm 10.00 Fair CLR 78.1 74.5 89% 81 30.18 0.0
14 08:10 Calm 10.00 Fair CLR 76.3 73.8 92% 76 30.18 0.0
14 07:50 Calm 10.00 Fair CLR 75.6 73.6 94% 75 30.17 0.0
14 07:30 Calm 7.00 Fair CLR 74.8 73 94% 30.17 0.0
14 07:10 Calm 10.00 Fair CLR 74.3 72.7 95% 30.17 0.0
14 06:50 Calm 10.00 Fair CLR 73.9 72.5 75 72.9 95% 30.16 0.0
14 06:30 Calm 7.00 Fair CLR 73.8 72.5 96% 30.16 0.0
14 06:10 Calm 10.00 Fair CLR 74.1 72.5 95% 30.15 0.0
14 05:50 Calm 10.00 Fair CLR 73.9 72.5 95% 30.15 0.0
14 05:30 Calm 7.00 Fair CLR 73.8 72.5 96% 30.15 0.0
14 05:10 Calm 7.00 Fair CLR 73.6 72.5 96% 30.14 0.0
14 04:50 Calm 7.00 Fair CLR 73.4 72.1 96% 30.14 0.0
14 04:30 Calm 10.00 Fair CLR 73.9 72.5 95% 30.13 0.0
14 04:10 Calm 10.00 Fair CLR 74.3 72.5 94% 30.13 0.0
14 03:50 Calm 10.00 Fair CLR 73.6 72 95% 30.13 0.0
14 03:30 Calm 10.00 Fair CLR 73.6 72 95% 30.13 0.0
14 03:10 Calm 10.00 Fair CLR 73.4 71.8 95% 30.13 0.0
14 02:50 Calm 10.00 Fair CLR 73.2 71.6 95% 30.14 0.0
14 02:30 Calm 10.00 Fair CLR 73.4 71.6 94% 30.14 0.0
14 02:10 Calm 10.00 Fair CLR 73.8 72 94% 30.14 0.0
14 01:50 Calm 10.00 Fair CLR 74.5 72 92% 30.13 0.0
14 01:30 Calm 10.00 Fair CLR 74.8 71.8 90% 30.14 0.0
14 01:10 Calm 10.00 Fair CLR 74.8 71.6 90% 30.14 0.0
14 00:50 Calm 10.00 Fair CLR 74.7 71.6 80.6 74.7 90% 30.15 0.0
14 00:30 Calm 10.00 Fair CLR 75 72.1 91% 74 30.15 0.0
14 00:10 Calm 10.00 Fair CLR 75.4 72.5 91% 75 30.16 0.0
13 23:50 Calm 10.00 Fair CLR 75.7 72.1 89% 76 30.16 0.0
13 23:30 E 3 10.00 Fair CLR 75.9 72.5 89% 76 30.17 0.0
13 22:50 Calm 10.00 Fair CLR 75.9 72.7 90% 76 30.17 0.0
13 22:30 Calm 10.00 Fair CLR 76.1 72.7 89% 76 30.17 0.0
13 22:10 NW 5 10.00 Fair CLR 75.4 71.8 89% 75 30.17 0.0
13 21:50 W 5 10.00 Fair CLR 76.3 72.5 88% 77 30.17 0.0
13 21:30 Calm 10.00 Fair CLR 77 72 85% 78 30.17 0.0
13 21:10 N 3 10.00 Fair CLR 77.9 72.5 84% 80 30.17 0.0
13 20:30 Calm 10.00 Partly Cloudy SCT120 78.3 74.3 88% 81 30.17 0.0
13 20:10 Calm 10.00 Mostly Cloudy BKN120 78.4 74.5 88% 81 30.17 0.0
13 19:50 Calm 10.00 Partly Cloudy SCT120 79.7 74.5 84% 84 30.17 0.0
13 19:30 Calm 10.00 Fair CLR 80.2 73.6 80% 85 30.18 0.0
13 19:10 W 3 10.00 Thunderstorm in Vicinity CLR 80.2 72.9 78% 84 30.17 0.0
13 18:50 Calm 10.00 Thunderstorm in Vicinity CLR 80.6 73.2 92.3 80.6 78% 85 30.17 0.0
13 18:30 W 3 10.00 Thunderstorm in Vicinity CLR 81.1 73 76% 86 30.17 0.0
13 18:10 S 7 10.00 Partly Cloudy SCT002 81.5 73.4 77% 87 30.15 0.0
13 17:50 S 9 10.00 Thunderstorm in Vicinity CLR 82.4 72.3 72% 88 30.16 0.0
13 17:30 S 6 10.00 Fair CLR 84.7 74.7 72% 93 30.14 0.0
13 17:10 W 3 10.00 Thunderstorm in Vicinity CLR 86.9 76.1 70% 97 30.13 0.0
13 16:50 W 5 10.00 Thunderstorm CLR 88 74.7 65% 97 30.12 0.0
13 16:30 NW 5 10.00 Fair CLR 89.2 73 59% 97 30.12 0.0
13 16:10 W 5 10.00 Fair CLR 89.1 72.9 59% 97 30.13 0.0
13 15:50 W 3 10.00 Fair CLR 89.6 72.3 57% 97 30.13 0.0
13 15:30 Calm 10.00 Fair CLR 91.6 70.3 50% 98 30.13 0.0
13 15:10 Calm 10.00 Fair CLR 91.8 71.8 52% 99 30.14 0.0
13 14:50 SW 3 10.00 Fair CLR 90.9 72.7 55% 99 30.14 0.0
13 14:30 Calm 10.00 Fair CLR 91.8 72.7 54% 100 30.15 0.0
13 14:10 Calm 10.00 Fair CLR 92.1 71.6 51% 99 30.16 0.0
13 13:50 W 6 10.00 Partly Cloudy SCT043 91.2 74.1 57% 101 30.17 0.0
13 13:30 SW 3 10.00 Partly Cloudy SCT043 91.2 72.3 54% 99 30.17 0.0
13 13:10 Calm 10.00 Fair CLR 90.5 72.9 56% 99 30.17 0.0
13 12:50 Calm 10.00 Partly Cloudy SCT039 SCT046 91 74.1 91 75.4 58% 101 30.18 0.0
13 12:30 W 3 10.00 Partly Cloudy SCT039 SCT046 90.7 73.6 57% 100 30.19 0.0
13 12:10 Calm 10.00 Fair CLR 89.4 72.7 58% 97 30.19 0.0
13 11:50 Calm 10.00 Fair CLR 89.1 73.9 61% 98 30.2 0.0
13 11:30 Calm 10.00 Partly Cloudy SCT028 SCT046 SCT060 87.3 75.2 67% 97 30.2 0.0
13 11:10 Calm 10.00 Mostly Cloudy BKN028 BKN044 BKN060 85.6 75.4 72% 95 30.2 0.0
13 10:50 W 3 10.00 Mostly Cloudy BKN026 BKN037 87.8 75.2 66% 98 30.2 0.0
13 10:30 Calm 10.00 Mostly Cloudy SCT023 SCT031 BKN037 86.2 74.8 69% 95 30.2 0.0
13 10:10 N 3 10.00 Fair CLR 86.2 76.3 72% 97 30.2 0.0
13 09:50 Calm 10.00 Fair CLR 85.3 75.7 73% 95 30.2 0.0
13 09:30 Calm 10.00 Fair CLR 84.7 75.9 75% 94 30.2 0.0
13 09:10 Calm 10.00 Fair CLR 83.3 75.4 77% 91 30.2 0.0
13 08:50 Calm 10.00 Fair CLR 82.4 74.7 78% 89 30.19 0.0
13 08:30 Calm 10.00 Fair CLR 81.5 75.2 81% 88 30.19 0.0
13 08:10 Calm 10.00 Fair CLR 79.9 75.2 86% 85 30.19 0.0
13 07:50 Calm 10.00 Fair CLR 79 75.2 88% 83 30.18 0.0
13 07:30 Calm 10.00 Fair CLR 77.7 75.2 92% 80 30.18 0.0
13 06:50 N 3 5.00 Fog/Mist CLR 75.2 73.9 76.5 73.9 96% 73 30.16 0.0
13 06:30 Calm 5.00 Fog/Mist CLR 74.3 73 96% 30.16 0.0
13 06:10 NE 3 5.00 Fog/Mist CLR 74.1 72.9 96% 30.15 0.0
13 05:50 N 3 10.00 Fair CLR 74.7 73.4 96% 30.14 0.0
13 05:30 Calm 10.00 Fair CLR 75.2 73.8 95% 74 30.14 0.0
13 05:10 Calm 10.00 Fair CLR 75.2 73.8 95% 74 30.13 0.0
13 04:50 Calm 10.00 Fair CLR 75.4 74.1 96% 74 30.13 0.0
13 04:30 Calm 10.00 Fair CLR 75.4 73.9 95% 74 30.12 0.0
13 04:10 Calm 10.00 Fair CLR 75.2 73.6 95% 74 30.11 0.0
13 03:50 Calm 10.00 Fair CLR 75.4 73.9 95% 74 30.11 0.0
13 03:10 Calm 10.00 Fair CLR 75.7 74.3 95% 75 30.11 0.0
13 02:50 Calm 10.00 Fair CLR 76.3 74.8 95% 76 30.11 0.0
13 02:30 Calm 10.00 Fair CLR 75.7 74.5 96% 75 30.12 0.0
13 02:10 Calm 10.00 Fair CLR 75.7 74.5 96% 75 30.12 0.0
13 01:50 Calm 10.00 Fair CLR 76.1 74.8 96% 76 30.12 0.0
13 01:30 Calm 10.00 Fair CLR 75.7 74.3 95% 75 30.12 0.0
13 01:10 Calm 10.00 Fair CLR 76.1 74.7 95% 76 30.12 0.0
13 00:50 Calm 10.00 Fair CLR 75.9 74.3 84.9 75.7 95% 75 30.13 0.0
13 00:30 Calm 10.00 Fair CLR 76.6 75.2 95% 77 30.13 0.0
13 00:10 Calm 10.00 Fair CLR 76.5 74.7 94% 77 30.12 0.0
12 23:50 Calm 10.00 Fair CLR 76.5 74.5 94% 77 30.12 0.0
12 23:30 Calm 10.00 Fair CLR 76.6 74.7 94% 77 30.12 0.0
12 23:10 Calm 10.00 Fair CLR 77.9 75.4 92% 80 30.12 0.0
12 22:50 Calm 10.00 Partly Cloudy SCT044 77.9 75 91% 80 30.11 0.0
12 22:30 Calm 10.00 Partly Cloudy SCT044 78.1 74.8 90% 81 30.11 0.0
12 22:10 Calm 10.00 Mostly Cloudy BKN046 78.3 74.5 88% 81 30.11 0.0
12 21:50 Calm 10.00 Partly Cloudy SCT046 78.6 74.8 88% 82 30.1 0.0
12 21:30 Calm 10.00 Partly Cloudy SCT047 78.1 74.3 88% 81 30.09 0.0
12 21:10 Calm 10.00 Fair CLR 78.3 75.9 93% 81 30.09 0.0
12 20:50 Calm 10.00 Fair CLR 79.9 76.1 88% 85 30.09 0.0
12 20:30 Calm 10.00 Fair CLR 79.7 76.8 91% 85 30.09 0.0
12 20:10 Calm 10.00 Partly Cloudy SCT002 81 77 88% 88 30.08 0.0
12 19:50 Calm 10.00 Partly Cloudy SCT002 81.1 76.3 85% 88 30.08 0.0
12 19:30 Calm 10.00 Fair CLR 83.3 76.6 80% 92 30.08 0.0
12 19:10 Calm 10.00 Fair CLR 83.7 75.6 77% 92 30.07 0.0
12 18:50 Calm 10.00 Fair CLR 86 74.5 91.4 85.1 69% 94 30.07 0.0
12 18:30 W 5 10.00 Fair CLR 86.2 74.5 68% 95 30.06 0.0
12 18:10 NW 7 10.00 Fair CLR 86.2 75 69% 95 30.06 0.0
12 17:50 NW 7 10.00 Fair CLR 86.7 75.7 70% 97 30.06 0.0
12 17:30 NW 7 G 17 10.00 Fair CLR 85.6 75 71% 94 30.06 0.0
12 17:10 N 5 10.00 Partly Cloudy SCT043 90.5 75 61% 101 30.06 0.0
12 16:50 NW 3 10.00 Fair CLR 90.7 73.4 57% 100 30.06 0.0
12 16:30 W 3 10.00 Fair CLR 90.5 73.4 57% 99 30.06 0.0
12 16:10 Calm 10.00 Fair CLR 90.7 73.4 57% 100 30.06 0.0
12 15:50 Calm 10.00 Thunderstorm in Vicinity CLR 90.1 73.6 58% 99 30.06 0.0
12 15:30 Calm 10.00 Fair CLR 88.2 74.7 64% 98 30.07 0.0
12 15:10 W 3 10.00 Fair CLR 87.3 75.2 67% 97 30.07 0.0
12 14:50 Calm 10.00 Fair CLR 87.8 73.8 63% 96 30.07 0.0
12 14:30 Calm 10.00 Partly Cloudy SCT039 88.2 72.1 59% 95 30.08 0.0
12 14:10 Calm 10.00 Fair CLR 89.8 72.3 57% 97 30.08 0.0
12 13:50 Calm 10.00 Fair CLR 90.9 73 56% 99 30.09 0.0
12 13:30 Calm 10.00 Fair CLR 89.2 73 59% 97 30.1 0.0
12 13:10 Calm 10.00 Fair CLR 89.2 72.7 58% 97 30.09 0.0
12 12:50 Calm 10.00 Fair CLR 88.2 72 89.6 75 59% 95 30.11 0.0
12 12:30 Calm 10.00 Fair CLR 88 71.6 58% 94 30.11 0.0
12 12:10 Calm 10.00 Fair CLR 87.1 72 61% 94 30.12 0.0
12 11:50 Calm 10.00 Fair CLR 87.4 72.9 62% 95 30.12 0.0
12 11:30 Calm 10.00 Fair CLR 85.6 73 66% 93 30.12 0.0
12 11:10 Calm 10.00 Fair CLR 86.2 73.2 65% 94 30.12 0.0
12 10:50 Calm 10.00 Fair CLR 85.8 73.6 67% 93 30.12 0.0
12 10:30 Calm 10.00 Fair CLR 84.7 73.8 70% 92 30.11 0.0
12 10:10 Calm 10.00 Fair CLR 83.7 73.8 72% 90 30.11 0.0
12 09:50 Calm 10.00 Fair CLR 82.8 74.3 76% 89 30.11 0.0
12 09:30 Calm 10.00 Fair CLR 81.1 74.3 80% 87 30.11 0.0
12 09:10 Calm 10.00 Fair CLR 80.1 72.9 79% 84 30.11 0.0
12 08:50 Calm 10.00 Partly Cloudy SCT039 79.9 73.2 80% 84 30.1 0.0
12 08:30 Calm 10.00 Partly Cloudy SCT039 79 72.3 80% 82 30.1 0.0
12 08:10 Calm 10.00 Fair CLR 78.1 74.3 88% 81 30.09 0.0
12 07:50 Calm 10.00 Fair CLR 77 73.9 90% 78 30.09 0.0
12 07:30 Calm 10.00 Partly Cloudy SCT090 75.7 73.2 92% 75 30.08 0.0
12 07:10 Calm 10.00 Partly Cloudy SCT090 75.4 73.4 94% 74 30.07 0.0
12 06:50 Calm 7.00 Partly Cloudy SCT090 74.5 73.2 74.5 72.5 96% 30.06 0.0
12 06:30 Calm 5.00 Fog/Mist CLR 73.4 72 95% 30.06 0.0
12 06:10 Calm 7.00 Fair CLR 73.4 72 95% 30.05 0.0
Date Time (cdt) Wind (mph) Vis. (mi.) Weather Sky Cond. Air Dwpt Max. Min. Relative Humidity Wind Chill (°F) Heat Index (°F) altimeter (in) sea level (mb) 1 hr 3 hr 6 hr
6 hour
Temperature (ºF) Pressure Precipitation (in)